WD4LUQ Weather Reports


time (UTC)temp
C
wind
direction
speed
KPH
gust
KPH
rain 1hr
cm
rain 24hr
cm
rain mn
cm
humidity
%
barometer
mb
20260504234913 20 112 0.0 0.0 0.00 0.00 0.00 39 991.5
20260504234412 20 112 0.0 0.0 0.00 0.00 0.00 38 991.5
20260504233911 20 112 0.0 0.0 0.00 0.00 0.00 38 991.5
20260504233409 21 112 0.0 0.0 0.00 0.00 0.00 38 991.5
20260504232908 21 112 0.0 0.0 0.00 0.00 0.00 38 991.5
20260504232408 21 112 0.0 0.0 0.00 0.00 0.00 37 991.9
20260504231906 21 112 0.0 0.0 0.00 0.00 0.00 36 991.9
20260504231406 21 135 0.0 0.0 0.00 0.00 0.00 36 991.9
20260504230905 22 135 0.0 0.0 0.00 0.00 0.00 35 991.9
20260504230404 22 315 0.0 0.0 0.00 0.00 0.00 36 991.5
20260504225904 22 0 0.0 0.0 0.00 0.00 0.00 37 991.5
20260504225332 22 0 0.0 0.0 0.00 0.00 0.00 36 991.9
20260504224759 22 0 0.0 0.0 0.00 0.00 0.00 35 991.9
20260504224257 23 0 0.0 0.0 0.00 0.00 0.00 34 991.9
20260504223757 23 45 0.0 0.0 0.00 0.00 0.00 32 991.9
20260504223256 23 22 0.0 0.0 0.00 0.00 0.00 32 991.9
20260504222755 23 0 0.0 0.0 0.00 0.00 0.00 30 991.9
20260504222254 23 0 0.0 0.0 0.00 0.00 0.00 30 991.9
20260504221752 23 315 0.0 0.0 0.00 0.00 0.00 29 991.9
20260504221220 23 45 0.0 0.0 0.00 0.00 0.00 29 991.9
20260504220720 24 45 0.0 0.0 0.00 0.00 0.00 30 991.9
20260504220219 24 45 0.0 0.0 0.00 0.00 0.00 29 991.9
20260504215718 24 22 0.0 0.0 0.00 0.00 0.00 31 991.9
20260504215218 24 135 0.0 0.0 0.00 0.00 0.00 31 991.9
20260504214717 24 45 0.0 0.0 0.00 0.00 0.00 30 991.9
20260504214216 24 112 0.0 0.0 0.00 0.00 0.00 30 991.9
20260504213715 24 112 0.0 0.0 0.00 0.00 0.00 30 991.9
20260504213214 24 112 0.0 0.0 0.00 0.00 0.00 29 991.9
20260504212712 25 22 0.0 0.0 0.00 0.00 0.00 27 991.9
20260504212140 25 22 0.0 0.0 0.00 0.00 0.00 27 991.9
20260504211639 25 292 0.0 0.0 0.00 0.00 0.00 29 991.9
20260504211138 25 202 0.0 0.0 0.00 0.00 0.00 30 991.9
20260504210637 25 90 0.0 0.0 0.00 0.00 0.00 30 991.9
20260504210135 25 90 0.0 0.0 0.00 0.00 0.00 29 991.9
20260504205634 25 225 0.0 0.0 0.00 0.00 0.00 27 991.9
20260504205133 25 315 0.0 0.0 0.00 0.00 0.00 29 992.2
20260504204632 25 315 0.0 0.0 0.00 0.00 0.00 28 992.2
20260504204059 26 315 0.0 0.0 0.00 0.00 0.00 27 991.9
20260504203559 26 0 0.0 0.0 0.00 0.00 0.00 26 991.9
20260504203027 26 112 0.0 0.0 0.00 0.00 0.00 27 992.2
20260504202455 26 22 0.0 0.0 0.00 0.00 0.00 26 992.2
20260504201952 26 67 0.0 0.0 0.00 0.00 0.00 25 992.2
20260504201452 27 180 0.0 0.0 0.00 0.00 0.00 25 992.2
20260504200950 27 67 0.0 0.0 0.00 0.00 0.00 24 992.2
20260504200449 27 247 0.0 0.0 0.00 0.00 0.00 24 992.2
20260504195845 27 247 0.0 0.0 0.00 0.00 0.00 23 992.6
20260504195342 27 247 0.0 0.0 0.00 0.00 0.00 23 992.6
20260504194841 28 247 0.0 0.0 0.00 0.00 0.00 23 992.6
20260504194341 28 247 0.0 0.0 0.00 0.00 0.00 22 992.6
20260504193840 28 247 0.0 0.0 0.00 0.00 0.00 20 992.6
20260504193339 28 247 0.0 0.0 0.00 0.00 0.00 21 992.9
20260504192838 28 247 0.0 0.0 0.00 0.00 0.00 20 993.2
20260504192336 28 247 0.0 0.0 0.00 0.00 0.00 21 993.2
20260504191836 28 247 0.0 0.0 0.00 0.00 0.00 21 993.2
20260504191303 29 247 0.0 0.0 0.00 0.00 0.00 23 993.2
20260504190802 29 247 0.0 0.0 0.00 0.00 0.00 22 993.2
20260504190229 28 247 0.0 0.0 0.00 0.00 0.00 22 993.6
20260504185728 29 202 0.0 0.0 0.00 0.00 0.00 21 993.2
20260504185228 29 315 0.0 1.6 0.00 0.00 0.00 22 993.6
20260504184655 29 67 0.0 1.6 0.00 0.00 0.00 22 993.6
20260504184153 28 22 1.6 1.6 0.00 0.00 0.00 22 993.9
20260504183652 28 315 0.0 1.6 0.00 0.00 0.00 23 993.9
20260504183152 28 0 0.0 1.6 0.00 0.00 0.00 23 993.9
20260504182620 28 112 0.0 4.8 0.00 0.00 0.00 24 993.6
20260504182047 28 0 0.0 4.8 0.00 0.00 0.00 23 993.6
20260504181546 28 292 0.0 0.0 0.00 0.00 0.00 21 993.9
20260504181045 28 22 0.0 0.0 0.00 0.00 0.00 23 993.9
20260504180544 28 112 0.0 0.0 0.00 0.00 0.00 23 994.2
20260504180044 28 202 0.0 0.0 0.00 0.00 0.00 23 994.2
20260504175543 28 135 0.0 0.0 0.00 0.00 0.00 25 994.2
20260504175011 28 157 0.0 0.0 0.00 0.00 0.00 23 994.2
20260504174439 28 202 0.0 0.0 0.00 0.00 0.00 24 994.2
20260504173938 28 202 0.0 0.0 0.00 0.00 0.00 24 994.6
20260504173406 28 67 0.0 0.0 0.00 0.00 0.00 26 994.2
20260504172905 28 90 0.0 0.0 0.00 0.00 0.00 27 994.2
20260504172404 27 180 0.0 0.0 0.00 0.00 0.00 27 994.6
20260504171903 27 180 0.0 0.0 0.00 0.00 0.00 27 994.6
20260504171402 27 67 0.0 0.0 0.00 0.00 0.00 27 994.6
20260504170901 27 135 0.0 0.0 0.00 0.00 0.00 26 994.6
20260504170400 27 45 0.0 0.0 0.00 0.00 0.00 27 994.9
20260504150953 25 45 1.6 1.6 0.00 0.00 0.00 35 995.9
20260504150452 25 135 0.0 0.0 0.00 0.00 0.00 34 995.9
20260504141233 18 112 0.0 0.0 0.00 0.00 0.00 67 996.3
20260504140732 16 112 0.0 0.0 0.00 0.00 0.00 70 996.3
20260504140200 15 90 0.0 0.0 0.00 0.00 0.00 76 996.3
20260504130616 9 225 0.0 0.0 0.00 0.00 0.00 85 996.3
20260504110245 3 225 0.0 0.0 0.00 0.00 0.00 83 995.9
20260504100128 3 225 0.0 0.0 0.00 0.00 0.00 82 995.9
20260504081801 3 225 0.0 0.0 0.00 0.00 0.00 82 995.6
20260504081228 3 225 0.0 0.0 0.00 0.00 0.00 82 995.6
20260504080727 3 225 0.0 0.0 0.00 0.00 0.00 82 995.6
20260504080226 3 225 0.0 0.0 0.00 0.00 0.00 82 995.6
20260504070139 4 225 0.0 0.0 0.00 0.00 0.00 81 995.9
20260504045530 5 225 0.0 0.0 0.00 0.00 0.00 78 996.3
20260504045028 6 225 0.0 0.0 0.00 0.00 0.00 78 996.6
20260504044526 6 225 0.0 0.0 0.00 0.00 0.00 77 996.6
20260504044025 6 225 0.0 0.0 0.00 0.00 0.00 77 996.6
20260504043525 6 225 0.0 0.0 0.00 0.00 0.00 77 996.6
20260504043023 6 225 0.0 0.0 0.00 0.00 0.00 77 996.6
20260504042522 6 225 0.0 0.0 0.00 0.00 0.00 77 996.6
20260504041949 6 225 0.0 0.0 0.00 0.00 0.00 77 996.6
20260504041446 6 225 0.0 0.0 0.00 0.00 0.00 76 996.6
20260504040914 6 225 0.0 0.0 0.00 0.00 0.00 76 996.6
20260504040413 6 225 0.0 0.0 0.00 0.00 0.00 75 997.0
20260504035911 6 225 0.0 0.0 0.00 0.00 0.00 74 997.0
20260504035410 6 225 0.0 0.0 0.00 0.00 0.00 74 997.0
20260504034909 6 225 0.0 0.0 0.00 0.00 0.00 73 997.0
20260504034408 6 225 0.0 0.0 0.00 0.00 0.00 73 997.0
20260504033906 7 225 0.0 0.0 0.00 0.00 0.00 73 997.0
20260504033405 7 225 0.0 0.0 0.00 0.00 0.00 73 997.0
20260504032832 7 225 0.0 0.0 0.00 0.00 0.00 73 996.6
20260504032331 7 225 0.0 0.0 0.00 0.00 0.00 73 997.0
20260504031828 7 225 0.0 0.0 0.00 0.00 0.00 72 997.0
20260504031327 7 225 0.0 0.0 0.00 0.00 0.00 72 996.6
20260504030826 7 225 0.0 0.0 0.00 0.00 0.00 72 996.6
20260504030325 7 225 0.0 0.0 0.00 0.00 0.00 72 996.6
20260504025822 8 225 0.0 0.0 0.00 0.00 0.00 72 996.6
20260504025322 8 225 0.0 0.0 0.00 0.00 0.00 72 996.6
20260504024821 8 225 0.0 0.0 0.00 0.00 0.00 72 996.6
20260504024320 8 225 0.0 0.0 0.00 0.00 0.00 70 996.6
20260504023818 8 225 0.0 0.0 0.00 0.00 0.00 69 996.6
20260504023317 8 225 0.0 0.0 0.00 0.00 0.00 69 996.6
20260504022816 8 225 0.0 0.0 0.00 0.00 0.00 68 996.6
20260504022315 8 225 0.0 0.0 0.00 0.00 0.00 68 996.6
20260504021813 9 225 0.0 0.0 0.00 0.00 0.00 68 996.6
20260504021312 9 225 0.0 0.0 0.00 0.00 0.00 66 996.3
20260504020812 9 225 0.0 0.0 0.00 0.00 0.00 67 996.3
20260504020310 10 225 0.0 0.0 0.00 0.00 0.00 66 996.3
20260504015810 10 225 0.0 0.0 0.00 0.00 0.00 65 996.3
20260504015309 10 225 0.0 0.0 0.00 0.00 0.00 65 995.9
20260504014808 10 225 0.0 0.0 0.00 0.00 0.00 64 995.9
20260504014307 10 225 0.0 0.0 0.00 0.00 0.00 63 995.9
20260504013806 10 225 0.0 0.0 0.00 0.00 0.00 62 995.9
20260504013202 10 225 0.0 0.0 0.00 0.00 0.00 61 995.9
20260504012630 11 225 0.0 0.0 0.00 0.00 0.00 61 995.9
20260504012130 11 225 0.0 0.0 0.00 0.00 0.00 61 995.9
20260504011629 11 225 0.0 0.0 0.00 0.00 0.00 57 995.9
20260504011024 11 225 0.0 0.0 0.00 0.00 0.00 56 995.9
20260504010523 11 225 0.0 0.0 0.00 0.00 0.00 56 995.6
20260504010023 12 225 0.0 0.0 0.00 0.00 0.00 54 995.6
20260504005521 12 225 0.0 0.0 0.00 0.00 0.00 53 995.6
20260504005019 12 225 0.0 0.0 0.00 0.00 0.00 51 995.6
20260504004518 12 225 0.0 0.0 0.00 0.00 0.00 51 995.6
20260504004015 13 225 0.0 0.0 0.00 0.00 0.00 51 995.6
20260504003514 13 225 0.0 0.0 0.00 0.00 0.00 46 995.3
20260504003013 13 225 0.0 0.0 0.00 0.00 0.00 46 995.3
20260504002512 13 225 0.0 0.0 0.00 0.00 0.00 45 995.3
20260504002011 14 225 0.0 0.0 0.00 0.00 0.00 44 995.3
20260504001510 14 225 0.0 0.0 0.00 0.00 0.00 43 995.3
20260504001008 15 225 0.0 0.0 0.00 0.00 0.00 42 995.3
20260504000507 15 225 0.0 0.0 0.00 0.00 0.00 41 995.3
20260503235934 15 225 0.0 0.0 0.00 0.00 0.00 40 995.3
20260503235433 16 225 0.0 0.0 0.00 0.00 0.00 39 995.3